Triuchirapalli, India

1:55 AM IST on June 29, 2017 (GMT +0530)
Tiruchirappalli

Weather History for VOTR - October, 2013

Change the Weather History Date:

Friday, October 4, 2013

  Actual Average Record
Temperature  
Mean Temperature 88 °F -  
Max Temperature 98 °F 86 °F 101 °F (2016)
Min Temperature 78 °F 76 °F 75 °F (1997)
Cooling Degree Days 23    
Growing Degree Days 38 (Base 50)    
Moisture  
Dew Point 71 °F    
Average Humidity 60    
Maximum Humidity 89    
Minimum Humidity 29    
Precipitation  
Precipitation 0.00 in - - ()
Sea Level Pressure  
Sea Level Pressure 29.80 in    
Wind  
Wind Speed 7 mph ()    
Max Wind Speed 17 mph    
Max Gust Speed -    
Visibility 3.3 miles    
Events      
Averages and records for this station are not official NWS values.
T = Trace of Precipitation, MM = Missing Value Source: Averaged Metar Reports

Daily Weather History Graph

Daily Weather History Graph

Search for Another Location

Airport or City:

Trip Planner

Search our weather history database for the weather conditions in past years. The results will help you decide how hot, cold, wet, or windy it might be!

Date:

Astronomy

Oct. 04, 2013 Rise Set
Actual Time 6:03 AM IST 6:03 PM IST
Civil Twilight 5:42 AM IST 6:24 PM IST
Nautical Twilight 5:18 AM IST 6:49 PM IST
Astronomical Twilight 4:53 AM IST 7:13 PM IST
Moon 5:14 AM IST (10/4) 5:31 PM IST (10/4)
Length of Visible Light 12h 42m
Length of Day
11h 59m
Waning Crescent, 1% of the Moon is Illuminated
Oct 4
Waning Crescent
Oct 5
New
Oct 12
First Quarter
Oct 19
Full
Oct 27
Last Quarter

Hourly Weather History & Observations

Time (IST) Temp. Heat Index Dew Point Humidity Pressure Visibility Wind Dir Wind Speed Gust Speed Precip Events Conditions
12:10 AM 80.6 °F 86.2 °F 75.2 °F 84% 29.80 in 3.1 mi WNW 3.5 mph - N/A   Haze
12:40 AM 78.8 °F - 75.2 °F 89% 29.80 in 3.1 mi WNW 3.5 mph - N/A   Haze
1:10 AM 78.8 °F - 75.2 °F 89% 29.80 in 3.1 mi NW 4.6 mph - N/A   Haze
1:40 AM 78.8 °F - 75.2 °F 89% 29.80 in 3.1 mi NW 5.8 mph - N/A   Haze
2:10 AM 78.8 °F - 75.2 °F 89% 29.77 in 3.1 mi WNW 9.2 mph - N/A   Haze
2:30 AM 81 °F - 70 °F 61% 29.78 in 1 mi WNW 10.4 mph - -   Haze
2:40 AM 80.6 °F 84.6 °F 71.6 °F 74% 29.77 in 3.1 mi WNW 10.4 mph - N/A   Haze
3:10 AM 80.6 °F 84.6 °F 71.6 °F 74% 29.77 in 3.1 mi WNW 11.5 mph - N/A   Haze
3:40 AM 80.6 °F 84.6 °F 71.6 °F 74% 29.77 in 3.1 mi West 12.7 mph - N/A   Haze
4:10 AM 80.6 °F 84.6 °F 71.6 °F 74% 29.77 in 3.1 mi WNW 10.4 mph - N/A   Haze
4:40 AM 80.6 °F 84.6 °F 71.6 °F 74% 29.80 in 3.1 mi WNW 11.5 mph - N/A   Haze
5:10 AM 80.6 °F 84.6 °F 71.6 °F 74% 29.80 in 3.1 mi WNW 11.5 mph - N/A   Haze
5:30 AM 79 °F - 69 °F 65% 29.79 in 1 mi WNW 9.2 mph - -   Haze
5:40 AM 78.8 °F - 69.8 °F 74% 29.80 in 3.1 mi WNW 10.4 mph - N/A   Haze
6:10 AM 78.8 °F - 69.8 °F 74% 29.80 in 3.1 mi West 9.2 mph - N/A   Haze
6:40 AM 78.8 °F - 69.8 °F 74% 29.83 in 2.2 mi WNW 11.5 mph - N/A   Haze
7:10 AM 80.6 °F 83.9 °F 69.8 °F 70% 29.83 in 2.2 mi West 10.4 mph - N/A   Haze
7:40 AM 80.6 °F 83.9 °F 69.8 °F 70% 29.83 in 2.2 mi West 11.5 mph - N/A   Haze
8:10 AM 82.4 °F 86.3 °F 69.8 °F 66% 29.83 in 2.5 mi West 11.5 mph - N/A   Haze
8:30 AM 82 °F - 69 °F 56% 29.83 in 2 mi West 11.5 mph - -   Haze
8:40 AM 82.4 °F 86.3 °F 69.8 °F 66% 29.83 in 2.5 mi West 17.3 mph - N/A   Haze
9:40 AM 86.0 °F 89.4 °F 68.0 °F 55% 29.83 in 2.5 mi West 16.1 mph - N/A   Haze
10:10 AM 86.0 °F 89.4 °F 68.0 °F 55% 29.86 in 3.1 mi West 8.1 mph - N/A   Haze
11:10 AM 89.6 °F 93.4 °F 68.0 °F 49% 29.86 in 3.1 mi West 9.2 mph - N/A   Haze
11:30 AM 93 °F - 69 °F 35% 29.83 in 2 mi SW 4.6 mph - -   Haze
11:40 AM 91.4 °F 95.4 °F 68.0 °F 46% 29.83 in 3.7 mi West 10.4 mph - N/A   Unknown
12:10 PM 93.2 °F 97.7 °F 68.0 °F 44% 29.80 in 3.7 mi WSW 4.6 mph - N/A   Unknown
12:40 PM 95.0 °F 99.5 °F 68.0 °F 41% 29.80 in 3.7 mi SW 4.6 mph - N/A   Unknown
1:10 PM 95.0 °F 99.5 °F 68.0 °F 41% 29.77 in 3.7 mi SW 3.5 mph - N/A   Unknown
1:40 PM 95.0 °F 99.5 °F 68.0 °F 41% 29.77 in 5.0 mi South 6.9 mph - N/A   Unknown
2:10 PM 96.8 °F 103.1 °F 69.8 °F 41% 29.77 in 5.0 mi South 8.1 mph - N/A   Partly Cloudy
2:30 PM 98 °F - 69 °F 29% 29.74 in 2 mi WSW 5.8 mph - -   Haze
2:40 PM 98.6 °F 105.5 °F 69.8 °F 39% 29.74 in 5.0 mi WNW 5.8 mph - N/A   Partly Cloudy
3:10 PM 98.6 °F 105.5 °F 69.8 °F 39% 29.74 in 5.0 mi SW 6.9 mph - N/A   Partly Cloudy
3:40 PM 98.6 °F 105.5 °F 69.8 °F 39% 29.74 in 5.0 mi SSW 6.9 mph - N/A   Partly Cloudy
4:10 PM 96.8 °F 105.1 °F 71.6 °F 44% 29.71 in 5.0 mi South 9.2 mph - N/A   Scattered Clouds
4:40 PM 95.0 °F 103.2 °F 71.6 °F 47% 29.74 in 5.0 mi SSE 5.8 mph - N/A   Scattered Clouds
5:10 PM 95.0 °F 103.2 °F 71.6 °F 47% 29.74 in 5.0 mi SSE 4.6 mph - N/A   Partly Cloudy
5:30 PM 94 °F - 67 °F 31% 29.73 in 2 mi South 3.5 mph - -   Haze
5:40 PM 93.2 °F 97.7 °F 68.0 °F 44% 29.74 in 5.0 mi SW 5.8 mph - N/A   Partly Cloudy
6:10 PM 93.2 °F 98.8 °F 69.8 °F 46% 29.74 in 3.7 mi SE 9.2 mph - N/A   Scattered Clouds
6:40 PM 91.4 °F 96.8 °F 69.8 °F 49% 29.74 in 3.7 mi SE 15.0 mph - N/A   Scattered Clouds
7:10 PM 87.8 °F 95.6 °F 73.4 °F 62% 29.77 in 3.7 mi South 8.1 mph - N/A   Scattered Clouds
7:40 PM 86.0 °F 93.4 °F 73.4 °F 66% 29.80 in 3.7 mi South 5.8 mph - N/A   Scattered Clouds
8:10 PM 86.0 °F 93.4 °F 73.4 °F 66% 29.80 in 3.7 mi SSW 4.6 mph - N/A   Scattered Clouds
8:30 PM 86 °F - 71 °F 52% 29.81 in 2 mi South 5.8 mph - -   Haze
8:40 PM 86.0 °F 93.4 °F 73.4 °F 66% 29.83 in 3.7 mi South 3.5 mph - N/A   Scattered Clouds
9:10 PM 86.0 °F 93.4 °F 73.4 °F 66% 29.83 in 3.7 mi South 3.5 mph - N/A   Scattered Clouds
9:40 PM 86.0 °F 91.8 °F 71.6 °F 62% 29.83 in 3.7 mi South 4.6 mph - N/A   Scattered Clouds
10:10 PM 84.2 °F 90.9 °F 73.4 °F 70% 29.83 in 3.7 mi Calm Calm - N/A   Scattered Clouds
10:40 PM 84.2 °F 90.9 °F 73.4 °F 70% 29.86 in 3.7 mi Variable 2.3 mph - N/A   Scattered Clouds
11:10 PM 84.2 °F 90.9 °F 73.4 °F 70% 29.86 in 3.7 mi NW 5.8 mph - N/A   Scattered Clouds
11:30 PM 84 °F - 70 °F 53% 29.85 in 2 mi NW 6.9 mph - -   Haze
11:40 PM 84.2 °F 88.4 °F 69.8 °F 62% 29.86 in 3.7 mi NW 6.9 mph - N/A   Scattered Clouds